KZR984 UACC-UATG

Flight info

Callsign KZR984
Flight time 2h 4m
Altitude 36000
Route OSROL1B OSROL L988 TUSEP N996 KODUM L988 GISTO GISTO1N
Aircraft A320/M-SDE1FGHIJ1RWXYZ/LB1

Departure

Time 2026-05-05 10:01
Airport Nursultan Nazarbayev International Airport (UACC)

Arrival

Time 2026-05-05 12:05
Airport Atyrau International Airport (UATG)
Time Latitude Longitude Altitude Speed Heading
2026-05-05 09:13 51.02364 71.45880 1164 ft 0 kts 224°
2026-05-05 09:53 51.02340 71.45862 1164 ft 5 kts 188°
2026-05-05 09:53 51.02308 71.45891 1164 ft 6 kts 134°
2026-05-05 09:54 51.02312 71.45957 1164 ft 6 kts 56°
2026-05-05 09:54 51.02351 71.46022 1164 ft 10 kts 45°
2026-05-05 09:54 51.02394 71.46091 1164 ft 8 kts 49°
2026-05-05 09:54 51.02395 71.46161 1164 ft 6 kts 116°
2026-05-05 09:55 51.02372 71.46206 1164 ft 5 kts 131°
2026-05-05 09:55 51.02367 71.46326 1163 ft 18 kts 55°
2026-05-05 09:55 51.02456 71.46468 1164 ft 17 kts 44°
2026-05-05 09:55 51.02537 71.46593 1164 ft 15 kts 44°
2026-05-05 09:56 51.02610 71.46707 1164 ft 14 kts 44°
2026-05-05 09:56 51.02680 71.46818 1164 ft 19 kts 45°
2026-05-05 09:56 51.02779 71.46971 1164 ft 19 kts 45°
2026-05-05 09:56 51.02870 71.47114 1164 ft 18 kts 45°
2026-05-05 09:57 51.02953 71.47242 1164 ft 16 kts 45°
2026-05-05 09:57 51.03027 71.47358 1164 ft 14 kts 44°
2026-05-05 09:57 51.03106 71.47482 1164 ft 17 kts 45°
2026-05-05 09:57 51.03187 71.47607 1164 ft 15 kts 44°
2026-05-05 09:58 51.03260 71.47721 1164 ft 14 kts 44°
2026-05-05 09:58 51.03328 71.47827 1164 ft 16 kts 44°
2026-05-05 09:58 51.03419 71.47990 1163 ft 19 kts 65°
2026-05-05 09:58 51.03432 71.48189 1164 ft 17 kts 90°
2026-05-05 09:59 51.03378 71.48324 1165 ft 14 kts 168°
2026-05-05 09:59 51.03305 71.48259 1165 ft 0 kts 225°
2026-05-05 10:00 51.03302 71.48254 1165 ft 1 kts 225°
2026-05-05 10:00 51.03222 71.48129 1165 ft 48 kts 224°
2026-05-05 10:00 51.02821 71.47502 1166 ft 112 kts 225°
2026-05-05 10:00 51.02134 71.46432 1166 ft 163 kts 225°
2026-05-05 10:01 51.01310 71.45135 1760 ft 164 kts 223°
2026-05-05 10:01 51.00496 71.43883 2591 ft 161 kts 224°
2026-05-05 10:01 50.99692 71.42645 3310 ft 166 kts 225°
2026-05-05 10:01 50.98820 71.41271 3664 ft 187 kts 225°
2026-05-05 10:02 50.97842 71.39745 4047 ft 209 kts 224°
2026-05-05 10:02 50.96749 71.38041 4485 ft 233 kts 225°
2026-05-05 10:02 50.95666 71.36004 5113 ft 249 kts 244°
2026-05-05 10:02 50.95382 71.33267 5959 ft 260 kts 271°
2026-05-05 10:03 50.95710 71.30415 6812 ft 266 kts 281°
2026-05-05 10:03 50.96234 71.27582 7666 ft 270 kts 283°
2026-05-05 10:03 50.96602 71.25692 8258 ft 272 kts 283°
2026-05-05 10:03 50.97136 71.22803 9123 ft 275 kts 282°
2026-05-05 10:04 50.97626 71.19856 9956 ft 278 kts 280°
2026-05-05 10:04 50.98083 71.16796 10393 ft 295 kts 279°
2026-05-05 10:04 50.98533 71.13486 10625 ft 318 kts 278°
2026-05-05 10:04 50.98987 71.09931 10953 ft 336 kts 278°
2026-05-05 10:05 50.99448 71.06262 11628 ft 341 kts 278°
2026-05-05 10:05 50.99911 71.02561 12426 ft 343 kts 278°
2026-05-05 10:05 51.00436 70.98839 13170 ft 347 kts 280°
2026-05-05 10:05 51.01047 70.95114 13900 ft 350 kts 281°
2026-05-05 10:06 51.01686 70.91370 14536 ft 352 kts 278°
2026-05-05 10:06 51.01990 70.87522 15159 ft 351 kts 268°
2026-05-05 10:06 51.01774 70.83679 15771 ft 350 kts 256°
2026-05-05 10:06 51.01044 70.79989 16402 ft 351 kts 246°
2026-05-05 10:07 51.00100 70.76395 17032 ft 354 kts 246°
2026-05-05 10:07 50.99153 70.72775 17662 ft 357 kts 246°
2026-05-05 10:07 50.98200 70.69125 18264 ft 360 kts 246°
2026-05-05 10:07 50.97240 70.65437 18804 ft 363 kts 246°
2026-05-05 10:08 50.96271 70.61723 19337 ft 366 kts 247°
2026-05-05 10:08 50.95292 70.57976 19864 ft 370 kts 247°
2026-05-05 10:08 50.94303 70.54193 20376 ft 373 kts 247°
2026-05-05 10:08 50.93305 70.50376 20864 ft 377 kts 247°
2026-05-05 10:09 50.92297 70.46520 21353 ft 380 kts 247°
2026-05-05 10:09 50.91277 70.42630 21833 ft 384 kts 247°
2026-05-05 10:09 50.90246 70.38709 22288 ft 387 kts 247°
2026-05-05 10:09 50.89208 70.34763 22747 ft 390 kts 248°
2026-05-05 10:10 50.88157 70.30778 23188 ft 393 kts 248°
2026-05-05 10:10 50.87096 70.26768 23604 ft 397 kts 248°
2026-05-05 10:10 50.86022 70.22724 23957 ft 399 kts 247°
2026-05-05 10:10 50.84941 70.18664 24322 ft 402 kts 247°
2026-05-05 10:11 50.83854 70.14583 24680 ft 404 kts 247°
2026-05-05 10:11 50.82761 70.10486 25047 ft 406 kts 247°
2026-05-05 10:11 50.81661 70.06367 25395 ft 408 kts 247°
2026-05-05 10:11 50.80609 70.02199 25742 ft 409 kts 252°
2026-05-05 10:12 50.79911 69.97828 26085 ft 411 kts 257°
2026-05-05 10:12 50.79302 69.93402 26427 ft 413 kts 257°
2026-05-05 10:12 50.78686 69.88957 26765 ft 415 kts 257°
2026-05-05 10:12 50.78065 69.84495 27094 ft 416 kts 257°
2026-05-05 10:13 50.77439 69.80018 27417 ft 418 kts 257°
2026-05-05 10:13 50.76809 69.75527 27727 ft 420 kts 257°
2026-05-05 10:13 50.76174 69.71014 28025 ft 421 kts 256°
2026-05-05 10:13 50.75535 69.66487 28314 ft 423 kts 256°
2026-05-05 10:14 50.74888 69.61951 28598 ft 424 kts 256°
2026-05-05 10:14 50.74237 69.57399 28869 ft 426 kts 256°
2026-05-05 10:14 50.73581 69.52832 29117 ft 427 kts 256°
2026-05-05 10:14 50.72923 69.48250 29375 ft 428 kts 256°
2026-05-05 10:15 50.72265 69.43670 29738 ft 427 kts 256°
2026-05-05 10:15 50.71599 69.39045 30095 ft 426 kts 256°
2026-05-05 10:15 50.70941 69.34498 30407 ft 425 kts 256°
2026-05-05 10:15 50.70294 69.30022 30701 ft 424 kts 256°
2026-05-05 10:16 50.69631 69.25437 31000 ft 423 kts 256°
2026-05-05 10:16 50.68977 69.20927 31298 ft 422 kts 256°
2026-05-05 10:16 50.68318 69.16424 31590 ft 421 kts 256°
2026-05-05 10:16 50.67656 69.11935 31889 ft 420 kts 256°
2026-05-05 10:17 50.67001 69.07508 32187 ft 419 kts 256°
2026-05-05 10:17 50.66330 69.02982 32482 ft 419 kts 256°
2026-05-05 10:17 50.65667 68.98515 32781 ft 418 kts 256°
2026-05-05 10:17 50.65007 68.94065 33071 ft 417 kts 256°
2026-05-05 10:18 50.64345 68.89616 33358 ft 417 kts 256°
2026-05-05 10:18 50.63682 68.85174 33653 ft 416 kts 256°
2026-05-05 10:18 50.63019 68.80743 33944 ft 416 kts 256°
2026-05-05 10:18 50.62357 68.76316 34186 ft 415 kts 256°
2026-05-05 10:19 50.61695 68.71888 34418 ft 415 kts 256°
2026-05-05 10:19 50.61030 68.67460 34642 ft 416 kts 256°
2026-05-05 10:19 50.60361 68.63036 34852 ft 416 kts 256°
2026-05-05 10:19 50.59688 68.58607 35070 ft 416 kts 256°
2026-05-05 10:20 50.59013 68.54183 35274 ft 416 kts 256°
2026-05-05 10:20 50.58337 68.49751 35474 ft 416 kts 256°
2026-05-05 10:20 50.57661 68.45321 35671 ft 416 kts 256°
2026-05-05 10:20 50.56983 68.40901 35859 ft 417 kts 256°
2026-05-05 10:21 50.55610 68.32006 35941 ft 419 kts 256°
2026-05-05 10:21 50.54226 68.23091 35940 ft 420 kts 256°
2026-05-05 10:22 50.52837 68.14165 35937 ft 420 kts 256°
2026-05-05 10:22 50.51329 68.05297 35939 ft 421 kts 253°
2026-05-05 10:23 50.49661 67.96480 35935 ft 421 kts 253°
2026-05-05 10:23 50.47986 67.87682 35934 ft 421 kts 253°
2026-05-05 10:24 50.46339 67.78873 35931 ft 421 kts 253°
2026-05-05 10:24 50.44705 67.70052 35928 ft 421 kts 253°
2026-05-05 10:25 50.43064 67.61234 35931 ft 421 kts 253°
2026-05-05 10:25 50.41400 67.52421 35931 ft 421 kts 253°
2026-05-05 10:26 50.39729 67.43622 35932 ft 421 kts 253°
2026-05-05 10:26 50.38056 67.34809 35933 ft 422 kts 253°
2026-05-05 10:27 50.36381 67.26015 35930 ft 422 kts 253°
2026-05-05 10:27 50.34693 67.17212 35933 ft 422 kts 253°
2026-05-05 10:28 50.32991 67.08418 35932 ft 422 kts 253°
2026-05-05 10:28 50.31298 66.99621 35933 ft 422 kts 254°
2026-05-05 10:29 50.29812 66.90726 35931 ft 423 kts 256°
2026-05-05 10:29 50.28428 66.81790 35932 ft 423 kts 256°
2026-05-05 10:30 50.26998 66.72881 35930 ft 423 kts 255°
2026-05-05 10:30 50.25518 66.63983 35928 ft 423 kts 255°
2026-05-05 10:31 50.24023 66.55093 35929 ft 423 kts 255°
2026-05-05 10:31 50.22525 66.46206 35927 ft 423 kts 255°
2026-05-05 10:32 50.21028 66.37318 35929 ft 423 kts 255°
2026-05-05 10:32 50.19526 66.28435 35929 ft 423 kts 255°
2026-05-05 10:33 50.18016 66.19562 35938 ft 423 kts 254°
2026-05-05 10:33 50.16501 66.10691 35935 ft 423 kts 254°
2026-05-05 10:34 50.14976 66.01821 35938 ft 423 kts 254°
2026-05-05 10:34 50.13371 65.93006 35934 ft 423 kts 253°
2026-05-05 10:35 50.11656 65.84239 35936 ft 423 kts 252°
2026-05-05 10:35 50.09934 65.75481 35935 ft 422 kts 252°
2026-05-05 10:36 50.08230 65.66736 35932 ft 422 kts 252°
2026-05-05 10:36 50.06530 65.57984 35934 ft 422 kts 252°
2026-05-05 10:37 50.04818 65.49234 35932 ft 423 kts 252°
2026-05-05 10:37 50.03100 65.40486 35932 ft 423 kts 252°
2026-05-05 10:38 50.01374 65.31746 35933 ft 423 kts 252°
2026-05-05 10:38 49.99643 65.23020 35931 ft 423 kts 252°
2026-05-05 10:39 49.97908 65.14293 35928 ft 423 kts 252°
2026-05-05 10:39 49.96167 65.05574 35928 ft 423 kts 252°
2026-05-05 10:40 49.94416 64.96862 35921 ft 423 kts 252°
2026-05-05 10:40 49.92653 64.88163 35919 ft 422 kts 251°
2026-05-05 10:41 49.90887 64.79470 35915 ft 422 kts 251°
2026-05-05 10:41 49.89409 64.72186 35913 ft 422 kts 251°
2026-05-05 10:42 49.86750 64.59160 35915 ft 423 kts 251°
2026-05-05 10:43 49.84963 64.50484 35916 ft 423 kts 251°
2026-05-05 10:43 49.83171 64.41810 35917 ft 423 kts 251°
2026-05-05 10:44 49.81365 64.33151 35918 ft 422 kts 251°
2026-05-05 10:44 49.79557 64.24498 35918 ft 423 kts 251°
2026-05-05 10:45 49.77748 64.15850 35921 ft 422 kts 251°
2026-05-05 10:45 49.75934 64.07204 35923 ft 422 kts 251°
2026-05-05 10:46 49.74106 63.98576 35922 ft 422 kts 251°
2026-05-05 10:46 49.72275 63.89969 35931 ft 422 kts 250°
2026-05-05 10:47 49.70440 63.81350 35931 ft 422 kts 250°
2026-05-05 10:47 49.68601 63.72749 35932 ft 422 kts 250°
2026-05-05 10:48 49.66755 63.64162 35944 ft 422 kts 250°
2026-05-05 10:48 49.64905 63.55577 35944 ft 421 kts 250°
2026-05-05 10:49 49.63249 63.46914 35951 ft 423 kts 259°
2026-05-05 10:49 49.62509 63.37908 35956 ft 424 kts 261°
2026-05-05 10:50 49.61782 63.28888 35954 ft 424 kts 261°
2026-05-05 10:50 49.61038 63.19878 35956 ft 423 kts 261°
2026-05-05 10:51 49.60294 63.10873 35956 ft 424 kts 260°
2026-05-05 10:51 49.59552 63.01872 35956 ft 423 kts 260°
2026-05-05 10:52 49.58790 62.92879 35956 ft 423 kts 260°
2026-05-05 10:52 49.58027 62.83888 35954 ft 423 kts 260°
2026-05-05 10:53 49.57258 62.74897 35948 ft 423 kts 260°
2026-05-05 10:53 49.56480 62.65917 35948 ft 423 kts 260°
2026-05-05 10:54 49.55696 62.56938 35954 ft 423 kts 260°
2026-05-05 10:54 49.54422 62.48147 35949 ft 421 kts 253°
2026-05-05 10:55 49.52932 62.39431 35952 ft 421 kts 253°
2026-05-05 10:55 49.51444 62.30719 35945 ft 421 kts 253°
2026-05-05 10:56 49.49949 62.22017 35946 ft 421 kts 253°
2026-05-05 10:56 49.48451 62.13322 35955 ft 420 kts 254°
2026-05-05 10:57 49.46947 62.04636 35954 ft 421 kts 254°
2026-05-05 10:57 49.45436 61.95953 35951 ft 421 kts 254°
2026-05-05 10:58 49.43920 61.87269 35955 ft 421 kts 254°
2026-05-05 10:58 49.42397 61.78587 35959 ft 421 kts 254°
2026-05-05 10:59 49.40864 61.69908 35964 ft 421 kts 253°
2026-05-05 10:59 49.39318 61.61239 35955 ft 421 kts 253°
2026-05-05 11:00 49.37767 61.52570 35959 ft 421 kts 253°
2026-05-05 11:00 49.36219 61.43908 35961 ft 421 kts 253°
2026-05-05 11:01 49.34661 61.35244 35964 ft 421 kts 253°
2026-05-05 11:01 49.33097 61.26600 35953 ft 421 kts 253°
2026-05-05 11:02 49.31524 61.17958 35958 ft 421 kts 253°
2026-05-05 11:02 49.29947 61.09323 35953 ft 421 kts 253°
2026-05-05 11:03 49.28358 61.00692 35953 ft 421 kts 253°
2026-05-05 11:03 49.26770 60.92067 35954 ft 421 kts 253°
2026-05-05 11:04 49.25175 60.83463 35947 ft 421 kts 253°
2026-05-05 11:04 49.23570 60.74854 35940 ft 421 kts 253°
2026-05-05 11:05 49.21970 60.66250 35945 ft 420 kts 253°
2026-05-05 11:05 49.20356 60.57651 35948 ft 420 kts 253°
2026-05-05 11:06 49.18732 60.49063 35947 ft 420 kts 253°
2026-05-05 11:06 49.17101 60.40480 35942 ft 421 kts 253°
2026-05-05 11:07 49.15466 60.31906 35952 ft 421 kts 253°
2026-05-05 11:07 49.13827 60.23334 35948 ft 420 kts 253°
2026-05-05 11:08 49.12186 60.14762 35940 ft 420 kts 252°
2026-05-05 11:08 49.10535 60.06208 35941 ft 420 kts 252°
2026-05-05 11:09 49.08878 59.97656 35937 ft 420 kts 252°
2026-05-05 11:09 49.07217 59.89107 35940 ft 420 kts 252°
2026-05-05 11:10 49.05549 59.80568 35939 ft 420 kts 252°
2026-05-05 11:10 49.03869 59.72032 35935 ft 421 kts 252°
2026-05-05 11:11 49.02180 59.63495 35941 ft 421 kts 252°
2026-05-05 11:11 49.00483 59.54970 35935 ft 421 kts 252°
2026-05-05 11:12 48.98784 59.46444 35936 ft 421 kts 252°
2026-05-05 11:12 48.97085 59.37927 35937 ft 420 kts 252°
2026-05-05 11:13 48.95374 59.29424 35930 ft 420 kts 252°
2026-05-05 11:13 48.93668 59.20932 35927 ft 420 kts 252°
2026-05-05 11:14 48.91953 59.12436 35924 ft 420 kts 252°
2026-05-05 11:14 48.90229 59.03955 35923 ft 420 kts 252°
2026-05-05 11:15 48.88485 58.95478 35921 ft 420 kts 251°
2026-05-05 11:15 48.86744 58.87004 35917 ft 420 kts 252°
2026-05-05 11:16 48.85009 58.78525 35914 ft 420 kts 252°
2026-05-05 11:16 48.83247 58.69997 35912 ft 421 kts 251°
2026-05-05 11:17 48.81484 58.61541 35912 ft 421 kts 251°
2026-05-05 11:17 48.79707 58.53084 35907 ft 421 kts 251°
2026-05-05 11:18 48.77932 58.44640 35905 ft 421 kts 251°
2026-05-05 11:18 48.76152 58.36192 35905 ft 420 kts 251°
2026-05-05 11:19 48.74372 58.27751 35905 ft 421 kts 251°
2026-05-05 11:19 48.72881 58.20744 35905 ft 421 kts 251°
2026-05-05 11:20 48.71082 58.12318 35901 ft 421 kts 251°
2026-05-05 11:20 48.69280 58.03894 35900 ft 420 kts 251°
2026-05-05 11:21 48.67474 57.95483 35891 ft 420 kts 251°
2026-05-05 11:21 48.65665 57.87089 35869 ft 420 kts 251°
2026-05-05 11:22 48.63847 57.78692 35870 ft 420 kts 251°
2026-05-05 11:22 48.62016 57.70313 35870 ft 420 kts 251°
2026-05-05 11:23 48.60176 57.61938 35871 ft 419 kts 251°
2026-05-05 11:23 48.58344 57.53577 35871 ft 419 kts 251°
2026-05-05 11:24 48.56509 57.45221 35869 ft 419 kts 251°
2026-05-05 11:24 48.54663 57.36883 35867 ft 419 kts 250°
2026-05-05 11:25 48.52812 57.28553 35864 ft 419 kts 250°
2026-05-05 11:25 48.50965 57.20225 35865 ft 419 kts 250°
2026-05-05 11:26 48.49103 57.11912 35862 ft 419 kts 250°
2026-05-05 11:26 48.47225 57.03601 35863 ft 419 kts 250°
2026-05-05 11:27 48.45353 56.95297 35863 ft 419 kts 250°
2026-05-05 11:27 48.43476 56.86988 35860 ft 419 kts 250°
2026-05-05 11:28 48.41598 56.78698 35855 ft 418 kts 250°
2026-05-05 11:28 48.39712 56.70419 35856 ft 418 kts 250°
2026-05-05 11:29 48.37815 56.62161 35852 ft 418 kts 250°
2026-05-05 11:29 48.35910 56.53909 35852 ft 418 kts 250°
2026-05-05 11:30 48.34006 56.45663 35850 ft 417 kts 250°
2026-05-05 11:30 48.32103 56.37429 35842 ft 417 kts 250°
2026-05-05 11:31 48.30198 56.29202 35844 ft 417 kts 250°
2026-05-05 11:31 48.28276 56.20983 35846 ft 417 kts 249°
2026-05-05 11:32 48.26355 56.12763 35846 ft 417 kts 249°
2026-05-05 11:32 48.24427 56.04555 35841 ft 417 kts 249°
2026-05-05 11:33 48.22485 55.96354 35844 ft 417 kts 249°
2026-05-05 11:33 48.20545 55.88164 35844 ft 417 kts 249°
2026-05-05 11:34 48.18589 55.79931 35834 ft 417 kts 249°
2026-05-05 11:34 48.16645 55.71753 35837 ft 417 kts 249°
2026-05-05 11:35 48.14685 55.63583 35836 ft 417 kts 249°
2026-05-05 11:35 48.12716 55.55427 35833 ft 417 kts 249°
2026-05-05 11:36 48.10743 55.47268 35837 ft 417 kts 249°
2026-05-05 11:36 48.08767 55.39105 35838 ft 417 kts 249°
2026-05-05 11:37 48.06780 55.30956 35839 ft 417 kts 248°
2026-05-05 11:37 48.04790 55.22809 35837 ft 417 kts 249°
2026-05-05 11:38 48.02795 55.14669 35836 ft 417 kts 248°
2026-05-05 11:38 48.00793 55.06531 35835 ft 417 kts 248°
2026-05-05 11:39 47.98785 54.98415 35839 ft 417 kts 248°
2026-05-05 11:39 47.96774 54.90296 35833 ft 417 kts 248°
2026-05-05 11:40 47.94763 54.82178 35835 ft 417 kts 248°
2026-05-05 11:40 47.93753 54.78122 35623 ft 417 kts 248°
2026-05-05 11:40 47.92742 54.74077 35377 ft 416 kts 248°
2026-05-05 11:40 47.91725 54.70033 35127 ft 416 kts 248°
2026-05-05 11:41 47.90710 54.66008 34880 ft 415 kts 248°
2026-05-05 11:41 47.89697 54.61974 34653 ft 415 kts 248°
2026-05-05 11:41 47.88686 54.57950 34410 ft 414 kts 247°
2026-05-05 11:41 47.87678 54.53938 34176 ft 414 kts 247°
2026-05-05 11:42 47.86665 54.49927 33940 ft 413 kts 247°
2026-05-05 11:42 47.85652 54.45926 33685 ft 413 kts 247°
2026-05-05 11:42 47.84637 54.41926 33414 ft 413 kts 247°
2026-05-05 11:42 47.83621 54.37925 33149 ft 414 kts 247°
2026-05-05 11:43 47.82600 54.33915 32887 ft 414 kts 247°
2026-05-05 11:43 47.81580 54.29905 32622 ft 415 kts 247°
2026-05-05 11:43 47.80558 54.25887 32359 ft 416 kts 247°
2026-05-05 11:43 47.79534 54.21865 32100 ft 416 kts 247°
2026-05-05 11:44 47.78502 54.17840 31841 ft 417 kts 246°
2026-05-05 11:44 47.77462 54.13811 31567 ft 417 kts 246°
2026-05-05 11:44 47.76420 54.09783 31201 ft 418 kts 246°
2026-05-05 11:44 47.75375 54.05746 30831 ft 419 kts 246°
2026-05-05 11:45 47.74332 54.01712 30463 ft 419 kts 246°
2026-05-05 11:45 47.73288 53.97666 30102 ft 420 kts 246°
2026-05-05 11:45 47.72246 53.93610 29723 ft 421 kts 246°
2026-05-05 11:45 47.71199 53.89547 29296 ft 422 kts 246°
2026-05-05 11:46 47.70145 53.85478 28875 ft 423 kts 246°
2026-05-05 11:46 47.69083 53.81402 28462 ft 423 kts 246°
2026-05-05 11:46 47.68023 53.77340 28059 ft 422 kts 246°
2026-05-05 11:46 47.66964 53.73294 27662 ft 420 kts 246°
2026-05-05 11:47 47.65912 53.69269 27265 ft 418 kts 246°
2026-05-05 11:47 47.64864 53.65262 26882 ft 416 kts 246°
2026-05-05 11:47 47.63821 53.61281 26449 ft 413 kts 246°
2026-05-05 11:47 47.62781 53.57320 25945 ft 411 kts 245°
2026-05-05 11:48 47.60713 53.49478 24974 ft 406 kts 245°
2026-05-05 11:48 47.59684 53.45588 24489 ft 404 kts 245°
2026-05-05 11:48 47.58661 53.41724 24019 ft 403 kts 245°
2026-05-05 11:49 47.57638 53.37868 23558 ft 401 kts 245°
2026-05-05 11:49 47.56619 53.34031 23050 ft 399 kts 245°
2026-05-05 11:49 47.55605 53.30217 22507 ft 397 kts 245°
2026-05-05 11:49 47.54594 53.26428 21973 ft 395 kts 245°
2026-05-05 11:50 47.53586 53.22664 21462 ft 393 kts 245°
2026-05-05 11:50 47.52580 53.18909 20934 ft 391 kts 245°
2026-05-05 11:50 47.51583 53.15177 20429 ft 389 kts 245°
2026-05-05 11:50 47.50588 53.11461 19929 ft 387 kts 245°
2026-05-05 11:51 47.49595 53.07768 19448 ft 386 kts 245°
2026-05-05 11:51 47.48605 53.04094 18966 ft 384 kts 245°
2026-05-05 11:51 47.47616 53.00427 18492 ft 383 kts 245°
2026-05-05 11:51 47.46631 52.96778 18021 ft 381 kts 246°
2026-05-05 11:52 47.45651 52.93148 17486 ft 379 kts 246°
2026-05-05 11:52 47.44675 52.89540 16957 ft 377 kts 246°
2026-05-05 11:52 47.43702 52.85958 16433 ft 375 kts 246°
2026-05-05 11:52 47.42734 52.82396 15937 ft 372 kts 246°
2026-05-05 11:53 47.41671 52.78935 15443 ft 368 kts 239°
2026-05-05 11:53 47.40270 52.75803 14942 ft 364 kts 230°
2026-05-05 11:53 47.38671 52.72927 14459 ft 362 kts 229°
2026-05-05 11:53 47.37077 52.70065 13988 ft 360 kts 230°
2026-05-05 11:54 47.35495 52.67217 13509 ft 358 kts 230°
2026-05-05 11:54 47.33925 52.64389 12985 ft 356 kts 230°
2026-05-05 11:54 47.32363 52.61580 12471 ft 353 kts 230°
2026-05-05 11:54 47.30809 52.58788 11963 ft 351 kts 230°
2026-05-05 11:55 47.29267 52.56024 11460 ft 348 kts 230°
2026-05-05 11:55 47.27733 52.53277 10971 ft 346 kts 229°
2026-05-05 11:55 47.26205 52.50550 10488 ft 344 kts 229°
2026-05-05 11:55 47.24705 52.47878 10004 ft 332 kts 229°
2026-05-05 11:56 47.23263 52.45302 9513 ft 321 kts 229°
2026-05-05 11:56 47.21867 52.42808 9001 ft 311 kts 229°
2026-05-05 11:56 47.20895 52.41078 8632 ft 306 kts 229°
2026-05-05 11:56 47.19553 52.38704 8128 ft 298 kts 229°
2026-05-05 11:57 47.18174 52.36262 7633 ft 331 kts 229°
2026-05-05 11:57 47.17158 52.34467 7301 ft 359 kts 229°
2026-05-05 11:57 47.15493 52.31520 6810 ft 383 kts 229°
2026-05-05 11:57 47.13313 52.27641 6166 ft 354 kts 230°
2026-05-05 11:58 47.12292 52.25825 5839 ft 342 kts 229°
2026-05-05 11:58 47.10812 52.23196 5331 ft 327 kts 229°
2026-05-05 11:58 47.09386 52.20672 4841 ft 316 kts 229°
2026-05-05 11:58 47.08003 52.18227 4329 ft 306 kts 229°
2026-05-05 11:59 47.06660 52.15859 3845 ft 298 kts 229°
2026-05-05 11:59 47.05327 52.13516 3418 ft 292 kts 229°
2026-05-05 11:59 47.04065 52.11294 2998 ft 284 kts 229°
2026-05-05 11:59 47.02808 52.09085 2565 ft 273 kts 228°
2026-05-05 12:00 47.01619 52.06997 2145 ft 267 kts 229°
2026-05-05 12:00 47.00555 52.04821 1783 ft 260 kts 239°
2026-05-05 12:00 46.99680 52.02537 1599 ft 246 kts 239°
2026-05-05 12:00 46.98882 52.00456 1601 ft 228 kts 239°
2026-05-05 12:01 46.98156 51.98483 1590 ft 213 kts 248°
2026-05-05 12:01 46.97927 51.96394 1594 ft 206 kts 276°
2026-05-05 12:01 46.98340 51.94453 1636 ft 196 kts 302°
2026-05-05 12:01 46.99203 51.93043 1600 ft 178 kts 328°
2026-05-05 12:02 47.00241 51.92144 1590 ft 172 kts 333°
2026-05-05 12:02 47.01275 51.91265 1591 ft 169 kts 332°
2026-05-05 12:02 47.02271 51.90415 1612 ft 161 kts 333°
2026-05-05 12:02 47.03222 51.89601 1611 ft 156 kts 333°
2026-05-05 12:03 47.04156 51.88803 1580 ft 155 kts 333°
2026-05-05 12:03 47.05077 51.88027 1356 ft 154 kts 334°
2026-05-05 12:03 47.06007 51.87253 1141 ft 153 kts 334°
2026-05-05 12:03 47.06930 51.86475 885 ft 153 kts 333°
2026-05-05 12:04 47.07858 51.85687 687 ft 151 kts 333°
2026-05-05 12:04 47.08763 51.84920 506 ft 149 kts 334°
2026-05-05 12:04 47.09653 51.84169 299 ft 146 kts 334°
2026-05-05 12:04 47.10523 51.83436 93 ft 143 kts 333°
2026-05-05 12:05 47.11375 51.82700 -71 ft 139 kts 338°
2026-05-05 12:05 47.12085 51.82112 -86 ft 93 kts 330°
2026-05-05 12:05 47.12495 51.81764 -81 ft 47 kts 331°
2026-05-05 12:05 47.12656 51.81627 -80 ft 15 kts 330°
2026-05-05 12:06 47.12745 51.81550 -85 ft 15 kts 329°
2026-05-05 12:06 47.12842 51.81468 -83 ft 17 kts 330°
2026-05-05 12:06 47.12951 51.81376 -85 ft 19 kts 330°
2026-05-05 12:06 47.13076 51.81270 -82 ft 22 kts 330°
2026-05-05 12:07 47.13182 51.81180 -83 ft 10 kts 329°
2026-05-05 12:07 47.13241 51.81130 -84 ft 9 kts 330°
2026-05-05 12:07 47.13293 51.81111 -82 ft 7 kts
2026-05-05 12:07 47.13348 51.81123 -81 ft 9 kts 350°
2026-05-05 12:08 47.13365 51.81075 -75 ft 4 kts 233°
2026-05-05 12:08 47.13301 51.81080 -84 ft 13 kts 154°
2026-05-05 12:08 47.13225 51.81145 -89 ft 13 kts 150°
2026-05-05 12:08 47.13116 51.81238 -83 ft 21 kts 150°
2026-05-05 12:09 47.12982 51.81351 -82 ft 23 kts 150°
2026-05-05 12:09 47.12836 51.81475 -86 ft 25 kts 150°
2026-05-05 12:09 47.12682 51.81606 -81 ft 26 kts 150°
2026-05-05 12:09 47.12517 51.81747 -83 ft 28 kts 149°
2026-05-05 12:10 47.12338 51.81898 -85 ft 31 kts 150°
2026-05-05 12:10 47.12158 51.82051 -86 ft 27 kts 151°
2026-05-05 12:10 47.12045 51.82148 -84 ft 15 kts 149°
2026-05-05 12:10 47.11966 51.82229 -81 ft 13 kts 123°
2026-05-05 12:11 47.11983 51.82359 -84 ft 15 kts 60°
2026-05-05 12:11 47.12034 51.82485 -83 ft 14 kts 60°
2026-05-05 12:11 47.12081 51.82605 -81 ft 13 kts 60°
2026-05-05 12:11 47.12129 51.82726 -81 ft 8 kts 60°
2026-05-05 12:12 47.12155 51.82815 -83 ft 9 kts 66°
2026-05-05 12:12 47.12185 51.82858 -81 ft 5 kts 14°
2026-05-05 12:12 47.12212 51.82850 -83 ft 4 kts 338°
2026-05-05 12:12 47.12226 51.82839 -82 ft 0 kts 330°
2026-05-05 12:13 47.12228 51.82838 -82 ft 1 kts 330°
2026-05-05 12:13 47.12229 51.82837 -82 ft 0 kts 330°
2026-05-05 12:13 47.12233 51.82833 -83 ft 0 kts 330°